IK5WWP Weather Reports


Display with metric or nautical units.
time (UTC)temp
F
wind
direction
speed
MPH
gust
MPH
rain 1hr
in
rain 24hr
in
rain mn
in
humidity
%
barometer
mb
20260903233330 73 0 0.0 0.0 0.00 0.00 0.00 77 1017.3
20260903232430 73 0 0.0 0.0 0.00 0.00 0.00 77 1017.2
20260903231531 73 1 0.0 2.0 0.00 0.00 0.00 77 1017.3
20260903230630 73 1 1.0 2.0 0.00 0.00 0.00 77 1017.2
20260903224831 74 0 0.0 0.0 0.00 0.00 0.00 76 1017.1
20260903223930 74 1 0.0 2.0 0.00 0.00 0.00 76 1017.1
20260903223031 74 1 1.0 2.0 0.00 0.00 0.00 75 1017.0
20260903222131 75 1 0.0 2.0 0.00 0.00 0.00 74 1017.0
20260903215512 76 1 0.0 2.0 0.00 0.00 0.00 71 1016.8
20260903214612 76 354 0.0 2.0 0.00 0.00 0.00 71 1017.1
20260903213712 76 21 2.0 4.0 0.00 0.00 0.00 70 1016.8
20260903211012 77 45 1.0 2.0 0.00 0.00 0.00 69 1016.9
20260903210112 78 40 0.0 6.0 0.00 0.00 0.00 68 1016.8
20260903205212 77 39 2.0 2.0 0.00 0.00 0.00 68 1016.8
20260903204312 77 64 0.0 2.0 0.00 0.00 0.00 70 1016.6
20260903203412 77 0 0.0 0.0 0.00 0.00 0.00 71 1016.8
20260903202513 76 68 0.0 2.0 0.00 0.00 0.00 73 1016.7
20260903201612 76 69 1.0 2.0 0.00 0.00 0.00 73 1016.6
20260903195812 77 0 0.0 0.0 0.00 0.00 0.00 71 1016.5
20260903194912 77 68 0.0 2.0 0.00 0.00 0.00 71 1016.2
20260903194012 78 68 0.0 2.0 0.00 0.00 0.00 70 1016.3
20260903193112 79 46 0.0 2.0 0.00 0.00 0.00 68 1016.4
20260903192212 79 46 0.0 4.0 0.00 0.00 0.00 67 1016.1
20260903191312 80 45 0.0 2.0 0.00 0.00 0.00 67 1016.3
20260903190414 80 69 1.0 2.0 0.00 0.00 0.00 67 1016.4
20260903185512 80 69 0.0 2.0 0.00 0.00 0.00 67 1016.2
20260903184613 80 63 1.0 2.0 0.00 0.00 0.00 67 1016.0
20260903183713 81 62 1.0 2.0 0.00 0.00 0.00 65 1016.0
20260903182812 80 69 0.0 2.0 0.00 0.00 0.00 67 1015.9
20260903181012 82 69 0.0 2.0 0.00 0.00 0.00 66 1015.9
20260903180112 82 65 0.0 2.0 0.00 0.00 0.00 66 1015.8
20260903174312 82 69 0.0 2.0 0.00 0.00 0.00 65 1015.5
20260903173413 83 69 1.0 2.0 0.00 0.00 0.00 64 1015.6
20260903171613 85 46 0.0 2.0 0.00 0.00 0.00 59 1015.6
20260903170712 85 69 1.0 2.0 0.00 0.00 0.00 57 1015.5
20260903164913 87 50 1.0 4.0 0.00 0.00 0.00 56 1015.3
20260903164012 87 58 2.0 4.0 0.00 0.00 0.00 56 1015.3
20260903162212 88 71 2.0 4.0 0.00 0.00 0.00 55 1015.2
20260903160413 89 47 2.0 4.0 0.00 0.00 0.00 53 1015.4
20260903155513 89 51 2.0 4.0 0.00 0.00 0.00 50 1015.2
20260903154613 90 40 0.0 6.0 0.00 0.00 0.00 47 1015.5
20260903153713 91 70 1.0 4.0 0.00 0.00 0.00 44 1015.5
20260903151913 91 93 2.0 4.0 0.00 0.00 0.00 44 1015.4
20260903151013 91 86 2.0 4.0 0.00 0.00 0.00 45 1015.7
20260903150113 91 107 2.0 4.0 0.00 0.00 0.00 45 1015.5
20260903145213 92 114 2.0 4.0 0.00 0.00 0.00 45 1015.2
20260903144313 92 52 1.0 4.0 0.00 0.00 0.00 44 1015.5
20260903143413 93 51 0.0 6.0 0.00 0.00 0.00 44 1015.5
20260903142513 92 96 1.0 4.0 0.00 0.00 0.00 43 1015.6
20260903141613 92 95 1.0 4.0 0.00 0.00 0.00 39 1015.6
20260903140713 92 111 2.0 4.0 0.00 0.00 0.00 40 1015.7
20260903135813 92 110 3.0 4.0 0.00 0.00 0.00 40 1015.7
20260903134913 93 93 1.0 4.0 0.00 0.00 0.00 41 1015.6
20260903133113 92 108 2.0 4.0 0.00 0.00 0.00 38 1015.6
20260903132213 93 115 0.0 4.0 0.00 0.00 0.00 38 1015.8
20260903131313 93 112 2.0 4.0 0.00 0.00 0.00 40 1015.8
20260903130413 93 110 1.0 4.0 0.00 0.00 0.00 41 1015.8
20260903125513 93 85 1.0 4.0 0.00 0.00 0.00 41 1016.1
20260903124613 94 93 1.0 2.0 0.00 0.00 0.00 41 1015.9
20260903121913 93 81 2.0 4.0 0.00 0.00 0.00 43 1016.4
20260903121013 92 110 2.0 4.0 0.00 0.00 0.00 43 1016.3
20260903120113 92 110 1.0 6.0 0.00 0.00 0.00 44 1016.4
20260903114313 92 98 1.0 4.0 0.00 0.00 0.00 43 1016.2
20260903113413 91 75 0.0 4.0 0.00 0.00 0.00 48 1016.4
20260903112513 90 112 2.0 4.0 0.00 0.00 0.00 49 1016.5
20260903111613 91 121 2.0 4.0 0.00 0.00 0.00 49 1016.6
20260903105813 89 121 2.0 4.0 0.00 0.00 0.00 51 1016.9
20260903104913 89 129 2.0 4.0 0.00 0.00 0.00 53 1017.3
20260903103113 89 87 0.0 4.0 0.00 0.00 0.00 55 1017.6
20260903102213 87 113 1.0 4.0 0.00 0.00 0.00 55 1017.5
20260903101313 87 118 2.0 4.0 0.00 0.00 0.00 55 1017.6
20260903100413 87 90 2.0 4.0 0.00 0.00 0.00 57 1017.9
20260903095513 86 98 2.0 4.0 0.00 0.00 0.00 57 1017.8
20260903094613 87 106 0.0 4.0 0.00 0.00 0.00 61 1017.9
20260903093713 85 113 2.0 4.0 0.00 0.00 0.00 62 1018.0
20260903091913 85 51 2.0 4.0 0.00 0.00 0.00 61 1017.9
20260903091013 85 116 0.0 4.0 0.00 0.00 0.00 61 1018.1
20260903090113 84 124 0.0 2.0 0.00 0.00 0.00 62 1017.8
20260903084313 82 126 1.0 2.0 0.00 0.00 0.00 64 1017.9
20260903082513 80 119 0.0 4.0 0.00 0.00 0.00 68 1017.7
20260903080713 76 108 0.0 2.0 0.00 0.00 0.00 73 1017.6
20260903075813 75 102 0.0 2.0 0.00 0.00 0.00 72 1017.5
20260903074913 75 53 0.0 2.0 0.00 0.00 0.00 77 1017.5
20260903074013 74 22 0.0 2.0 0.00 0.00 0.00 77 1017.6
20260903073113 74 0 0.0 0.0 0.00 0.00 0.00 77 1017.7
20260903071313 73 90 0.0 2.0 0.00 0.00 0.00 80 1017.5
20260903070413 72 0 0.0 0.0 0.00 0.00 0.00 80 1017.6
20260903065514 71 0 0.0 0.0 0.00 0.00 0.00 81 1017.7
20260903064617 70 0 0.0 0.0 0.00 0.00 0.00 84 1017.7
20260903063713 69 23 0.0 2.0 0.00 0.00 0.00 85 1017.6
20260903062814 68 22 0.0 2.0 0.00 0.00 0.00 85 1017.5
20260903061913 67 25 1.0 2.0 0.00 0.00 0.00 86 1017.7
20260903061013 67 23 0.0 2.0 0.00 0.00 0.00 87 1017.6
20260903060113 67 22 0.0 2.0 0.00 0.00 0.00 87 1017.5
20260903055213 67 0 0.0 0.0 0.00 0.00 0.00 88 1017.6
20260903054313 67 0 0.0 0.0 0.00 0.00 0.00 88 1017.2
20260903053413 67 0 0.0 0.0 0.00 0.00 0.00 88 1017.6
20260903052513 67 0 0.0 0.0 0.00 0.00 0.00 88 1017.3
20260903051614 67 0 0.0 0.0 0.00 0.00 0.00 88 1017.2
20260903050713 67 0 0.0 0.0 0.00 0.00 0.00 88 1017.1
20260903045814 66 0 0.0 0.0 0.00 0.00 0.00 87 1017.2
20260903044914 66 0 0.0 0.0 0.00 0.00 0.00 87 1017.2
20260903044013 66 0 0.0 0.0 0.00 0.00 0.00 87 1017.0
20260903043129 66 22 0.0 2.0 0.00 0.00 0.00 87 1017.0
20260903042214 66 23 0.0 2.0 0.00 0.00 0.00 87 1016.9
20260903041313 66 23 0.0 2.0 0.00 0.00 0.00 87 1017.0
20260903040414 67 0 0.0 0.0 0.00 0.00 0.00 88 1016.9
20260903034617 67 23 0.0 2.0 0.00 0.00 0.00 88 1016.8
20260903033729 68 22 0.0 2.0 0.00 0.00 0.00 87 1016.9
20260903032816 68 0 0.0 0.0 0.00 0.00 0.00 87 1017.0
20260903031914 68 22 0.0 2.0 0.00 0.00 0.00 87 1016.9
20260903031017 68 23 0.0 2.0 0.00 0.00 0.00 86 1016.8
20260903030113 68 22 0.0 2.0 0.00 0.00 0.00 85 1016.6
20260903023414 68 23 0.0 2.0 0.00 0.00 0.00 84 1017.2
20260903022514 68 22 1.0 2.0 0.00 0.00 0.00 84 1017.2
20260903021614 69 22 1.0 2.0 0.00 0.00 0.00 85 1017.0
20260903020714 69 0 0.0 0.0 0.00 0.00 0.00 85 1017.1
20260903014914 69 40 0.0 2.0 0.00 0.00 0.00 85 1017.0
20260903014016 69 43 1.0 2.0 0.00 0.00 0.00 85 1017.3
20260903012214 69 68 0.0 2.0 0.00 0.00 0.00 85 1017.2
20260903011314 69 68 0.0 2.0 0.00 0.00 0.00 85 1017.1
20260903010414 70 34 0.0 2.0 0.00 0.00 0.00 85 1017.1
20260903005514 70 35 1.0 2.0 0.00 0.00 0.00 84 1017.3
20260903004629 69 45 0.0 2.0 0.00 0.00 0.00 84 1017.1
20260903003716 70 40 0.0 2.0 0.00 0.00 0.00 84 1016.7
20260903001914 69 22 1.0 2.0 0.00 0.00 0.00 84 1016.9
20260903001019 70 0 0.0 0.0 0.00 0.00 0.00 85 1016.9
20260903000114 70 0 0.0 0.0 0.00 0.00 0.00 85 1017.1
20260902234314 71 22 0.0 2.0 0.00 0.00 0.00 83 1017.0
20260902233415 70 23 0.0 2.0 0.00 0.00 0.00 83 1017.1